Regional Weather Roundup
Issued by NWS

Home | Current Version | Previous Version | Text Only | Print | Product List | Glossary Off
Versions: 1 2 3 4 5 6 7 8 9 10 11 12 13 14 15 16 17 18 19 20 21 22 23 24 25 26 27 28 29 30 31 32 33 34 35 36 37 38 39 40 41 42 43 44 45 46 47 48 49

000
ASUS45 KBOU 262007
RWRCO

WEATHER ROUNDUP FOR COLORADO
NATIONAL WEATHER SERVICE DENVER/BOULDER CO
200 PM MDT SUN APR 26 2015

NOTE: "FAIR" INDICATES FEW OR NO CLOUDS BELOW 12000 FEET WITH NO
SIGNIFICANT WEATHER AND/OR OBSTRUCTIONS TO VISIBILITY.

COZ001>005-013-030-031-262100-
...NORTHWEST COLORADO...

CITY           SKY/WX    TMP DP  RH WIND       PRES   REMARKS
CRAIG          LGT RAIN  50  38  63 NW13      29.78R
HAYDEN         CLOUDY    50  34  53 SW10G16   29.79R
MEEKER         CLOUDY    50  39  66 NW12      29.80R
MOUNT WERNER   NOT AVBL
STEAMBOAT SPGS CLOUDY    51  35  54 E14G24    29.79R
WALDEN         CLOUDY    50  32  50 E9        29.85S
$$

COZ006>008-011-262100-
...WEST CENTRAL VALLEYS...

CITY           SKY/WX    TMP DP  RH WIND       PRES   REMARKS
GRAND JUNCTION MOSUNNY   54  42  64 W6        29.78S
MONTROSE       CLOUDY    47  40  76 N12       29.80S
EAGLE          CLOUDY    45  41  87 NE6       29.84R
RIFLE          CLOUDY    52  41  66 W18       29.75S
DELTA          CLOUDY    57  42  58 MISG      29.74F
NUCLA          CLOUDY    52  36  54 W3        29.81S
$$

COZ017>023-064>068-262100-
...SOUTHWEST COLORADO...

CITY           SKY/WX    TMP DP  RH WIND       PRES   REMARKS
DURANGO        PTSUNNY   48  39  71 SW9       29.74F
CORTEZ         CLOUDY    52  40  63 W14       29.75F
PAGOSA SPRINGS CLOUDY    45  38  78 W3        29.76F THUNDER
TELLURIDE      SNOW      33  33 100 W13       29.84R VSB<1/4 WCI  24
WOLF CREEK PAS NOT AVBL
$$

COZ009-010-012-014-032>034-037-058>063-262100-
...CENTRAL COLORADO...

CITY           SKY/WX    TMP DP  RH WIND       PRES   REMARKS
ASPEN          LGT RAIN  43  37  79 N12       29.79R
BUENA VISTA    CLOUDY    42  35  76 NW7       29.84S
COPPER MTN     CLOUDY    32  28  86 E12       29.93R WCI  23
BERTHOUD PASS  SNOW      21  14  73 MISG      29.97R VSB 1/4
COTTONWOOD PAS FOG       34  32  93 CALM      29.88R VSB<1/4
GUNNISON       PTSUNNY   54  25  32 SE8       29.75S
KREMMLING      CLOUDY    45  36  70 CALM      29.86R
LEADVILLE      SNOW      31  29  92 N3        29.87R VSB 1/2
MONARCH PASS   CLOUDY    28  27  93 MISG      29.97S
SALIDA         CLOUDY    40  37  89 CALM      29.90R
SUNLIGHT       LGT SNOW  34  32  93 N7        29.91R WCI  28
WILKERSON PASS SNOW     N/A N/A N/A E9        29.93S VSB 1/4
$$

COZ069>075-262100-
...SAN LUIS VALLEY/SANGRE DE CRISTO MOUNTAINS...

CITY           SKY/WX    TMP DP  RH WIND       PRES   REMARKS
ALAMOSA        CLOUDY    48  36  63 S8        29.75F
LA VETA PASS   CLOUDY    36  34  93 NE14G24   29.83F
SAGUACHE       RAIN      36  32  87 SE21G35   29.80R
$$

COZ035-036-038>040-262100-
...NORTHERN COLORADO FRONT RANGE...

CITY           SKY/WX    TMP DP  RH WIND       PRES   REMARKS
DENVER INTL AP LGT RAIN  44  44 100 E20       29.89R
DMNS CITY PARK   N/A     43  42  95 NE9       29.89S
AURORA         LGT RAIN  43  42  99 E10       29.88R
FRONT RANGE AP LGT RAIN  45  45 100 E13       29.89S
ERIE MUNI ARPT RAIN      45  43  93 N6        29.90S
BOULDER MUN AP LGT RAIN  43  41  93 NE5       29.90S
CENTENNIAL     LGT RAIN  43  42  97 VRB7      29.87R FOG
BROOMFIELD     NOT AVBL
FORT COLLINS   CLOUDY    45  41  87 E10       29.93R
LONGMONT       LGT RAIN  47  43  88 NE6       29.93R
$$

COZ041-046-047-076>085-087-088-262100-
...PIKES PEAK/PALMER DIVIDE AND SOUTHERN FOOTHILLS...

CITY           SKY/WX    TMP DP  RH WIND       PRES   REMARKS
COLO. SPRINGS  LGT RAIN  43  41  93 E22G28    29.85S FOG
A. F. ACADEMY  LGT RAIN  43  42  99 E13       29.84S
ELLICOTT       CLOUDY   N/A N/A N/A E21       29.83F
FALCON         FOG       40  40 100 E18       29.88S VSB 3/4
FORT CARSON    LGT RAIN  44  43  99 E14       29.82F
LIMON          CLOUDY    42  41  96 E18       29.89S FOG
MONUMENT HILL  CLOUDY    39  37  93 E14       29.86R FOG
TRINIDAD       LGT RAIN  49  40  71 CALM      29.75R
$$

COZ042>045-048>051-090-091-262100-
...NORTHEAST COLORADO...

CITY           SKY/WX    TMP DP  RH WIND       PRES   REMARKS
GREELEY ARPT   CLOUDY    45  39  81 E12       29.93R
AKRON          FOG       41  41 100 E15       29.92S VSB 3/4
BURLINGTON     CLOUDY    44  42  93 E13       29.91R FOG
WRAY           CLOUDY   N/A N/A N/A E10G17    29.95R FOG
STERLING       CLOUDY    43  43 100 E8G16     29.93S
HOLYOKE        FOG       45  41  87 E13       29.97R VSB 1
FORT MORGAN    LGT RAIN  43  41  94 E13       29.92S
$$

COZ086-089-092>099-262100-
...SOUTHEAST COLORADO...

CITY           SKY/WX    TMP DP  RH WIND       PRES   REMARKS
PUEBLO         CLOUDY    48  45  89 E21       29.80S
LA JUNTA       CLOUDY    52  44  74 E29       29.80S
LAMAR          CLOUDY    47  46  97 E21       29.83S FOG
SPRINGFIELD      N/A     47  47 100 E21       29.80F
$$



USA.gov is the U.S. government's official web portal to all federal, state and local government web resources and services.